Find Starlink 2126

NORAD ID: 47726 Int'l Des: 2021-017 Owner: SPXS Country: US Constellation: starlink decayed
LEOCIRCULAR
Vis

Historical Track — Dec 31, 2024

正在加载3D地球...

关于 Starlink 2126

正在加载描述...

高度历史

Loading altitude history...

两行轨道根数

1 47726U 21017E 24366.22517091 .17538066 12471-4 45749-3 0 9992
2 47726 53.0234 266.1655 0003881 220.9675 280.2887 16.45695708213054
Epoch: Dec 31, 2024 • Age: 11783 hours

当前状态

Position data unavailable
发射日期 Mar 4, 2021
运行时间 5.1 years
衰减日期 Dec 31, 2024
类型 internet

技术详情

分类 Payload
质量 260.00 kg
干质量 248.00 kg
总质量 260.00 kg
长度 0.20 m
直径 2.80 m
跨度 9.00 m
形状 Box + pan
制造商 SPXS
平台类型 Starlink
阶段状态 Unknown Transfer Status
所有者/国家 SPXS/US

Most Searched